{"data":{"norad_id":58170,"epoch":"2026-09-20T13:49:00.287328Z","epoch_age_seconds":133836,"freshness":"FRESH","line1":"1 58170U 23166W   26263.57569777  .00001169  00000+0  45739-4 0  9999","line2":"2 58170  53.1575  33.2262 0000901  75.2248 284.8855 15.34396544163032","mean_motion":15.34396544,"eccentricity":9.01e-5,"inclination_deg":53.1575,"raan_deg":33.2262,"arg_perigee_deg":75.2248,"mean_anomaly_deg":284.8855,"bstar":4.5739e-5,"rev_number":16303,"period_min":93.847969459452,"perigee_km":462.09715155556,"apogee_km":463.32987281785,"semimajor_km":6840.8505121867,"source":"CELESTRAK","updated_at":"2026-09-21T09:00:33.825085Z"}}